Flag for U.S.A. Weather past 2 weeks in Lakewood, New Jersey, U.S.A.

42 °F

Mostly cloudy.

Feels Like: 42 °F
Forecast: 37 / 47 °F
Wind: No wind

Location: Lakehurst Naval Air Station

Current Time: Nov 29, 2015 at 6:38:16 AM

Latest Report: Nov 29, 2015 at 6:06 AM

Visibility: 10 mi

Pressure: 30.20 "Hg

Humidity: 92%

Dew point: 40 °F

Location of LakewoodLocation

Historic Weather in Lakewood — Graph


Lakewood temperature yesterday

Maximum temperature yesterday: 61 °F (at 1:00 PM)
Minimum temperature yesterday: 47 °F (at 11:00 PM)
Average temperature yesterday: 54 °F

Past Weeks' High & Low Weather Summary

High68 °F (Nov 16, 1:00 PM)100% (Nov 19, 10:00 PM)30.80 "Hg (Nov 19, 10:00 PM)
Low20 °F (Nov 24, 1:00 AM)27% (Nov 20, 2:00 PM)29.87 "Hg (Nov 22, 2:00 AM)
Average45 °F71%30.28 "Hg
* Reported Nov 14 5:00 AM — Nov 29 5:00 AM, Lakewood, Weather by CustomWeather, © 2015

Note: Actual official high and low records may vary slightly from our data, if they occured in-between our weather recording intervals... More about our weather records


Lakewood weather history for previous 24 hours

Time TempWeatherWind HumidityBarometerVisibility
5:00 AM
Sun, Nov 29
43 °FMostly cloudy.No wind86%30.19 "Hg10 mi
4:00 AM44 °FMostly cloudy.5 mph82%30.18 "Hg10 mi
3:00 AM45 °FMostly cloudy.3 mph80%30.19 "Hg10 mi
2:06 AM45 °FOvercast.3 mph80%30.18 "Hg10 mi
2:00 AM45 °FMostly cloudy.5 mph81%30.18 "Hg10 mi
1:00 AM46 °FOvercast.No wind89%30.18 "Hg10 mi
12:00 AM46 °FOvercast.5 mph86%30.19 "Hg10 mi
11:00 PM
Sat, Nov 28
47 °FLow clouds.6 mph90%30.19 "Hg10 mi
10:00 PM48 °FLow clouds.No wind93%30.19 "Hg7 mi
9:00 PM51 °FFog.7 mph86%30.18 "Hg6 mi
8:00 PM52 °FLow clouds.6 mph93%30.16 "Hg9 mi
7:00 PM54 °FLow clouds.5 mph97%30.14 "Hg7 mi
6:00 PM55 °FFog.No wind93%30.13 "Hg6 mi
5:00 PM55 °FOvercast.No wind93%30.13 "Hg8 mi
4:00 PM59 °FOvercast.3 mph72%30.13 "Hg10 mi
3:00 PM60 °FMostly cloudy.3 mph69%30.11 "Hg10 mi
2:00 PM61 °FMore clouds than sun.5 mph70%30.10 "Hg10 mi
1:00 PM61 °FOvercast.6 mph67%30.11 "Hg10 mi
12:00 PM60 °FOvercast.7 mph69%30.13 "Hg10 mi
11:00 AM58 °FMostly cloudy.7 mph75%30.16 "Hg10 mi
10:00 AM56 °FPassing clouds.5 mph81%30.17 "Hg10 mi
9:00 AM54 °FScattered clouds.5 mph86%30.17 "Hg10 mi
8:00 AM52 °FSunny.6 mph89%30.18 "Hg10 mi
7:00 AM51 °FPassing clouds.6 mph89%30.18 "Hg10 mi
6:00 AM51 °FClear.7 mph89%30.17 "Hg10 mi
Weather by CustomWeather, © 2015

See weather overviewHow to use our weather pages